User: anonymous   Login
Location: Allie Creek
(37.5926°N, 89.8526°W)
Time: 23:49:45
(UTC+00:00)
Language:

Cosmos 1666 Rocket - Orbit

View from above orbital plane
View from above orbital plane
View from above satellite
View from above satellite

Ground track
Ground track

The orbit data is extracted from the following two-line orbital elements,

1 15890U 85058B   24055.49770892  .00000755  00000-0  86660-4 0  9998
2 15890  82.5271 133.4523 0022055  83.3844 276.9881 14.84386712 66002
Epoch (UTC): 24 February 2024 11:56:42
Eccentricity: 0.0022055
inclination: 82.5271°
perigee height: 600 km
apogee height: 631 km
right ascension of ascending node: 133.4523°
argument of perigee: 83.3844°
revolutions per day: 14.84386712
mean anomaly at epoch: 276.9881°
orbit number at epoch: 6600

The dashed part of the orbit path shows where the satellite is in the earth's shadow,  

DLR